(57241) = 1991 NV9 = 2000 FP71 = 2001 QC83

Discovered at Socorro on 2001-08-17 by LINEAR.

Orbit

Orbit type: Main Belt

Note: WebGL enabled browser required.

epoch2023-09-13.0
epoch JD2460200.5
perihelion date2020-08-05.15890
perihelion JD2459066.65890
argument of perihelion (°)55.87237
ascending node (°)264.08154
inclination (°)2.94440
eccentricity0.1591604
perihelion distance (AU)1.8292070
Tisserand w.r.t. Jupiter3.7
ΔV w.r.t. Earth (km/sec)8.3
semimajor axis (AU)2.1754530
mean anomaly (°)348.28235
mean daily motion (°/day)0.30717030
aphelion distance (AU)2.522
period (years)3.21
P-vector [x]0.76444020
P-vector [y]-0.60712173
P-vector [z]-0.21687414
Q-vector [x]0.64266685
Q-vector [y]0.69096406
Q-vector [z]0.33098034
absolute magnitude16.02
phase slope0.15
uncertainty0
referenceMPEC 2024-A34
observations used1602
oppositions19
arc length (days)11712
first opposition used1991
last opposition used2023
residual rms (arc-secs)0.65
perturbers coarse indicatorM-v
perturbers precise indicator003Ek
first observation date used1991-07-11.0
last observation date used2023-08-04.0
computer nameMPCLINUX
JD of orbit computation2456966.711698
perihelion JD uncertainty (days)5.9794E-05
argument of perihelion uncertainty (°)8.7521E-05
ascending node uncertainty (°)8.6319E-05
inclination uncertainty (°)3.9424E-06
eccentricity uncertainty 4.3967E-08
perihelion distance uncertainty (AU)1.0046E-07
Minimum Orbit Intersection Distances (in AU)
for orbit epoch: 2460200.5, reference: E2024-A34
Mercury1.40889
Venus1.10643
Earth0.81755
Mars0.44997
Jupiter2.75018
Saturn6.61718
Uranus15.9563
Neptune27.6718

Observations

1627 total observations over interval: 1991 07 11.02743 – 2023 08 04.160172
These data are available for download (format description).

Date (UT) J2000 RA J2000 Dec Magn Location Ref
1991 07 11.02743 19 40 01.32 -18 32 27.1   809 – European Southern Observatory, La Silla MPC 53587
1991 07 11.03784 19 40 00.50 -18 32 26.1   809 – European Southern Observatory, La Silla MPC 53587
1991 07 11.04826 19 39 59.69 -18 32 25.0   809 – European Southern Observatory, La Silla MPC 53587
1998 12 11.30557 03 56 59.45 +21 49 00.6 19.2 R 699 – Lowell Observatory-LONEOS MPS 34678
1998 12 11.32845 03 56 58.02 +21 48 52.3   699 – Lowell Observatory-LONEOS MPS 34678
1998 12 11.35137 03 56 56.68 +21 48 46.8   699 – Lowell Observatory-LONEOS MPS 34678
1998 12 14.12550 03 54 20.26 +21 36 07.0 18.7   704 – Lincoln Laboratory ETS, New Mexico MPS 34678
1998 12 14.14779 03 54 19.23 +21 35 59.2 19.3   704 – Lincoln Laboratory ETS, New Mexico MPS 34678
1998 12 14.16967 03 54 17.83 +21 35 54.8 19.5   704 – Lincoln Laboratory ETS, New Mexico MPS 34678
1998 12 14.19150 03 54 16.58 +21 35 48.9 19.5   704 – Lincoln Laboratory ETS, New Mexico MPS 34678
1998 12 14.21333 03 54 15.07 +21 35 43.8 20.0   704 – Lincoln Laboratory ETS, New Mexico MPS 34678
2000 03 09.30563 12 08 32.98 -06 16 28.2 18.6   704 – Lincoln Laboratory ETS, New Mexico MPS 34231
2000 03 09.31906 12 08 32.19 -06 16 25.9 19.1   704 – Lincoln Laboratory ETS, New Mexico MPS 34231
2000 03 09.33319 12 08 31.38 -06 16 21.0 19.4   704 – Lincoln Laboratory ETS, New Mexico MPS 34231
2000 03 09.34721 12 08 30.56 -06 16 16.5 19.2   704 – Lincoln Laboratory ETS, New Mexico MPS 34231
2000 03 26.33827 11 51 32.65 -04 30 33.3 17.8 R 699 – Lowell Observatory-LONEOS MPS 16975
2000 03 26.35884 11 51 31.38 -04 30 24.5   699 – Lowell Observatory-LONEOS MPS 16975
2000 03 26.37945 11 51 30.11 -04 30 16.0   699 – Lowell Observatory-LONEOS MPS 16975
2000 03 26.40006 11 51 28.79 -04 30 07.7   699 – Lowell Observatory-LONEOS MPS 16975
2000 04 04.31129 11 42 51.69 -03 28 23.3 18.2   704 – Lincoln Laboratory ETS, New Mexico MPS 16975
2000 04 04.32561 11 42 50.91 -03 28 16.6 18.6   704 – Lincoln Laboratory ETS, New Mexico MPS 16975
2000 04 04.35424 11 42 49.23 -03 28 05.2 18.7   704 – Lincoln Laboratory ETS, New Mexico MPS 16975
2000 04 04.36855 11 42 48.45 -03 27 58.0 18.6   704 – Lincoln Laboratory ETS, New Mexico MPS 16975
2001 08 17.39874 02 01 09.08 +16 52 26.3 19.7   704 – Lincoln Laboratory ETS, New Mexico MPS 33622
2001 08 17.40147 02 01 09.08 +16 52 27.0 19.1   704 – Lincoln Laboratory ETS, New Mexico MPS 33622
2001 08 17.41106 02 01 09.56 +16 52 30.8 19.7   704 – Lincoln Laboratory ETS, New Mexico MPS 33622
2001 08 17.41380 02 01 09.68 +16 52 31.8 19.4   704 – Lincoln Laboratory ETS, New Mexico MPS 33622
2001 08 17.42315 02 01 10.08 +16 52 34.7 19.7   704 – Lincoln Laboratory ETS, New Mexico MPS 33622
2001 08 17.42589 02 01 10.14 +16 52 36.3 19.0   704 – Lincoln Laboratory ETS, New Mexico MPS 33622
2001 08 22.38105 02 04 34.94 +17 18 12.9 18.8   704 – Lincoln Laboratory ETS, New Mexico MPS 33622
2001 08 22.39837 02 04 35.54 +17 18 17.1 19.3   704 – Lincoln Laboratory ETS, New Mexico MPS 33622
2001 08 22.41061 02 04 35.95 +17 18 21.3 19.5   704 – Lincoln Laboratory ETS, New Mexico MPS 33622
2001 08 22.42279 02 04 36.38 +17 18 24.8 19.1   704 – Lincoln Laboratory ETS, New Mexico MPS 33622
2001 08 22.43544 02 04 36.74 +17 18 28.6 19.6   704 – Lincoln Laboratory ETS, New Mexico MPS 33622
2001 08 28.34288 02 07 39.26 +17 43 13.5 17.6 R 699 – Lowell Observatory-LONEOS MPS 34678
2001 08 28.35053 02 07 39.42 +17 43 15.6 18.8   644 – Palomar Mountain/NEAT MPS 34678
2001 08 28.36947 02 07 39.87 +17 43 19.7   699 – Lowell Observatory-LONEOS MPS 34678
2001 08 28.37171 02 07 39.91 +17 43 20.0 18.8   644 – Palomar Mountain/NEAT MPS 34678
2001 08 28.39315 02 07 40.38 +17 43 24.9 18.5   644 – Palomar Mountain/NEAT MPS 34678
2001 08 28.39615 02 07 40.58 +17 43 23.8   699 – Lowell Observatory-LONEOS MPS 34678
2001 08 28.42288 02 07 41.14 +17 43 30.2   699 – Lowell Observatory-LONEOS MPS 34678
2001 09 17.35366 02 08 42.18 +18 14 32.5 19.4   704 – Lincoln Laboratory ETS, New Mexico MPS 35997
2001 09 17.36805 02 08 41.83 +18 14 32.3 19.1   704 – Lincoln Laboratory ETS, New Mexico MPS 35997
2001 09 17.38265 02 08 41.53 +18 14 31.2 19.2   704 – Lincoln Laboratory ETS, New Mexico MPS 35997
2001 09 17.39761 02 08 41.15 +18 14 30.0 19.4   704 – Lincoln Laboratory ETS, New Mexico MPS 35997
2001 09 19.25630 02 08 01.42 +18 12 46.5 17.9 R 699 – Lowell Observatory-LONEOS MPS 35997
2001 09 19.28128 02 08 00.82 +18 12 44.4   699 – Lowell Observatory-LONEOS MPS 35997
2001 09 19.30624 02 08 00.18 +18 12 42.8   699 – Lowell Observatory-LONEOS MPS 35997
2001 09 19.33123 02 07 59.53 +18 12 41.4   699 – Lowell Observatory-LONEOS MPS 35997
2001 09 20.32843 02 07 34.61 +18 11 25.0 18.5   704 – Lincoln Laboratory ETS, New Mexico MPS 35997
2001 09 20.34444 02 07 34.18 +18 11 23.9 18.8   704 – Lincoln Laboratory ETS, New Mexico MPS 35997
2001 09 20.35918 02 07 33.78 +18 11 22.6 18.8   704 – Lincoln Laboratory ETS, New Mexico MPS 35997
2001 09 20.37375 02 07 33.30 +18 11 20.9 18.6   704 – Lincoln Laboratory ETS, New Mexico MPS 35997
2001 09 20.38992 02 07 32.85 +18 11 18.9 18.8   704 – Lincoln Laboratory ETS, New Mexico MPS 35997
2001 09 20.39620 02 07 32.70 +18 11 19.2 18.0   704 – Lincoln Laboratory ETS, New Mexico MPS 35997
2001 09 20.42434 02 07 31.94 +18 11 17.0 18.1   704 – Lincoln Laboratory ETS, New Mexico MPS 35997
2001 09 20.43842 02 07 31.54 +18 11 15.6 18.3   704 – Lincoln Laboratory ETS, New Mexico MPS 35997
2001 09 20.45249 02 07 31.07 +18 11 14.1 18.6   704 – Lincoln Laboratory ETS, New Mexico MPS 35997
2001 09 22.33104 02 06 38.35 +18 08 06.4 18.5   704 – Lincoln Laboratory ETS, New Mexico MPS 35997
2001 09 22.34584 02 06 37.81 +18 08 04.5 18.8   704 – Lincoln Laboratory ETS, New Mexico MPS 35997
2001 09 22.36000 02 06 37.26 +18 08 02.5 18.5   704 – Lincoln Laboratory ETS, New Mexico MPS 35997
2001 09 22.37648 02 06 36.79 +18 08 01.5 18.7   704 – Lincoln Laboratory ETS, New Mexico MPS 35997
2001 09 22.39081 02 06 36.31 +18 07 59.5 18.8   704 – Lincoln Laboratory ETS, New Mexico MPS 35997
2001 09 23.32863 02 06 07.05 +18 06 06.4 18.1   704 – Lincoln Laboratory ETS, New Mexico MPS 43641
2001 09 23.37272 02 06 05.49 +18 06 01.1 18.6   704 – Lincoln Laboratory ETS, New Mexico MPS 43641
2001 09 23.38883 02 06 04.99 +18 05 58.7 19.7   704 – Lincoln Laboratory ETS, New Mexico MPS 43641
2001 10 12.25586 01 50 53.95 +16 44 58.2 17.7 R 699 – Lowell Observatory-LONEOS MPS 37783
2001 10 12.27920 01 50 52.48 +16 44 50.0   699 – Lowell Observatory-LONEOS MPS 37783
2001 10 12.30260 01 50 51.02 +16 44 41.4   699 – Lowell Observatory-LONEOS MPS 37783
2001 10 12.32609 01 50 49.51 +16 44 32.7   699 – Lowell Observatory-LONEOS MPS 37783
2001 10 14.25066 01 48 53.36 +16 32 16.5 17.7   704 – Lincoln Laboratory ETS, New Mexico MPS 37783
2001 10 14.26636 01 48 52.35 +16 32 10.3 18.1   704 – Lincoln Laboratory ETS, New Mexico MPS 37783
2001 10 14.28257 01 48 51.31 +16 32 04.3 18.2   704 – Lincoln Laboratory ETS, New Mexico MPS 37783
2001 10 14.29823 01 48 50.31 +16 31 58.0 17.9   704 – Lincoln Laboratory ETS, New Mexico MPS 37783
2001 10 14.31388 01 48 49.31 +16 31 52.1 17.8   704 – Lincoln Laboratory ETS, New Mexico MPS 37783
2001 10 15.24208 01 47 52.82 +16 25 44.0 18.0   704 – Lincoln Laboratory ETS, New Mexico MPS 37783
2001 10 15.24812 01 47 52.54 +16 25 41.9 18.0 V 333 – Desert Eagle Observatory MPS 37783
2001 10 15.24954 01 47 52.37 +16 25 41.1 18.5 V 333 – Desert Eagle Observatory MPS 37783
2001 10 15.25825 01 47 51.80 +16 25 37.9 18.4   704 – Lincoln Laboratory ETS, New Mexico MPS 37783
2001 10 15.26990 01 47 51.08 +16 25 33.4 18.0 V 333 – Desert Eagle Observatory MPS 37783
2001 10 15.27127 01 47 50.97 +16 25 32.5 18.2 V 333 – Desert Eagle Observatory MPS 37783
2001 10 15.27426 01 47 50.78 +16 25 31.5 18.7   704 – Lincoln Laboratory ETS, New Mexico MPS 37783
2001 10 15.29008 01 47 49.73 +16 25 24.7 18.3   704 – Lincoln Laboratory ETS, New Mexico MPS 37783
2001 10 15.29412 01 47 49.52 +16 25 23.2 18.0 V 333 – Desert Eagle Observatory MPS 37783
2001 10 15.29551 01 47 49.42 +16 25 23.0 18.3 V 333 – Desert Eagle Observatory MPS 37783
2001 10 15.30612 01 47 48.73 +16 25 18.2 18.8   704 – Lincoln Laboratory ETS, New Mexico MPS 37783
